This is the latest recevied weather packets stored in our database for station/object KI4MRC. If no packets are shown the sender has not sent any weather packets the latest 10 day(s).
| Time | Temp. | Humidity | Pressure | Rain* | Wind** | Luminosity | Snow |
|---|---|---|---|---|---|---|---|
| 1777146143 | 28.89° C | 51% | 1011.3 hPa | 0 mm | - | 116 W/m² | - |
| 1777145837 | 28.89° C | 52% | 1011.4 hPa | 0 mm | - | 70 W/m² | - |
| 1777145534 | 28.89° C | 55% | 1011.4 hPa | 0 mm | - | 75 W/m² | - |
| 1777145228 | 28.89° C | 53% | 1011.3 hPa | 0 mm | - | 91 W/m² | - |
| 1777144924 | 28.89° C | 54% | 1011.3 hPa | 0 mm | - | 101 W/m² | - |
| 1777144623 | 29.44° C | 50% | 1011.4 hPa | 0 mm | - | 615 W/m² | - |
| 1777144319 | 29.44° C | 51% | 1011.3 hPa | 0 mm | - | 842 W/m² | - |
| 1777144015 | 29.44° C | 51% | 1011.5 hPa | 0 mm | - | 859 W/m² | - |
| 1777143711 | 29.44° C | 48% | 1011.5 hPa | 0 mm | - | 867 W/m² | - |
| 1777143408 | 30° C | 50% | 1011.5 hPa | 0 mm | - | 891 W/m² | - |
| 1777143103 | 30° C | 48% | 1011.4 hPa | 0 mm | - | 897 W/m² | - |
| 1777142799 | 29.44° C | 50% | 1011.3 hPa | 0 mm | - | 914 W/m² | - |
| 1777142497 | 30° C | 49% | 1011.4 hPa | 0 mm | - | 926 W/m² | - |
| 1777142195 | 30° C | 48% | 1011.6 hPa | 0 mm | - | 938 W/m² | - |
| 1777141893 | 30° C | 49% | 1011.3 hPa | 0 mm | - | 950 W/m² | - |
| 1777141590 | 30° C | 53% | 1011.5 hPa | 0 mm | - | 963 W/m² | - |
| 1777141289 | 30° C | 46% | 1011.4 hPa | 0 mm | - | 963 W/m² | - |
| 1777140985 | 30° C | 53% | 1011.5 hPa | 0 mm | - | 978 W/m² | - |
| 1777140682 | 30.56° C | 49% | 1011.7 hPa | 0 mm | - | 985 W/m² | - |
| 1777140378 | 30° C | 50% | 1011.8 hPa | 0 mm | - | 994 W/m² | - |
| 1777140076 | 29.44° C | 48% | 1011.8 hPa | 0 mm | - | 1001 W/m² | - |
| 1777139774 | 30° C | 51% | 1011.8 hPa | 0 mm | - | 1001 W/m² | - |
| 1777139470 | 30° C | 51% | 1011.9 hPa | 0 mm | - | 1004 W/m² | - |
| 1777139164 | 30° C | 50% | 1011.9 hPa | 0 mm | - | 1016 W/m² | - |
| 1777138862 | 30° C | 48% | 1011.9 hPa | 0 mm | - | 1013 W/m² | - |
* Rain latest hour (hover to see other rain measurements)
** Current wind speed in m/s (hover to see current wind gust speed)